OpenBCM V2.0.3 (Linux)

Packet Radio Mailbox

IZ3LSV

[San Dona' di P. JN]

 Login: GUEST





  
LU9DCE > KEP      29.11.19 18:13l 246 Lines 12264 Bytes #999 (0) @ WW
BID : 4012_LU9DCE
Read: GUEST
Subj: TLE 29 11
Path: IZ3LSV<DB0ERF<DB0RES<IR2UBX<EA2RCF<LU9DCE
Sent: 191129/1601Z 4012@LU9DCE.TOR.BA.ARG.SOAM LinBPQ6.0.19

            __    _  _  ___  ____   ___  ____    ____  ____  ____
           (  )  / )( \/ _ \(    \ / __)(  __)  (  _ \(  _ \/ ___)
           / (_/\) \/ (\__  )) D (( (__  ) _)    ) _ ( ) _ (\___ \
           \____/\____/(___/(____/ \___)(____)  (____/(____/(____/
               ESTACION DE PACKET RADIO - BUENOS AIRES (GF05OM)
                   BOLETINES INFORMATIVOS PROGRAMADOS (BIP)
                  SLACKWARE LINUX - HELLOCODELINUX@GMAIL.COM
+----------------------------------------------------------------------------+
OSCAR 7
1  7530U 74089B   19333.20874578 -.00000043  00000-0  13535-4 0  9992
2  7530 101.7698 299.3292 0012460  32.4814 340.5660 12.53641001 61015
OSCAR 11 (UoSAT 2)
1 14781U 84021B   19333.10670388  .00000088  00000-0  16934-4 0  9991
2 14781  97.6004 350.0027 0009487 136.0929 224.1041 14.83123777922981
OSCAR 19 (LUSAT)
1 20442U 90005G   19333.41309518 -.00000000  00000-0  16252-4 0  9997
2 20442  98.6672 275.2625 0012379  31.6419 328.5506 14.32939032559821
EYESAT A
1 22825U 93061C   19332.94142269 -.00000009 +00000-0 +14397-4 0  9991
2 22825 098.9159 325.4076 0007492 240.4966 119.5469 14.30072290365010
ITAMSAT
1 22826U 93061D   19332.90502574 -.00000017 +00000-0 +11530-4 0  9992
2 22826 098.9099 325.3415 0008124 228.2133 131.8355 14.30406609365233
RADIO ROSTO
1 23439U 94085A   19332.97252330 -.00000010 +00000-0 +92734-3 0  9996
2 23439 064.8153 212.0772 0145656 081.2401 280.4987 11.27568922026306
JAS 2
1 24278U 96046B   19333.33642312 -.00000016  00000-0  19196-4 0  9999
2 24278  98.5619 104.7476 0350467 175.6704 184.7607 13.53094716149935
TECHSAT 1B
1 25397U 98043D   19332.88164884 -.00000014 +00000-0 +13336-4 0  9991
2 25397 098.7058 271.1565 0000408 338.2481 021.8680 14.23675076110876
ISS (ZARYA)
1 25544U 98067A   19333.58772073  .00001266  00000-0  30135-4 0  9999
2 25544  51.6448 261.2705 0006459 339.4289 213.7611 15.50054443200919
PCSAT
1 26931U 01043C   19333.37894171 -.00000050  00000-0  12739-4 0  9990
2 26931  67.0510 301.2820 0007340 265.0416  94.9847 14.30560152948386
SAUDISAT 1C
1 27607U 02058C   19333.15308013 -.00000040  00000-0  15242-4 0  9990
2 27607  64.5553 269.8274 0071247 224.4634 135.0737 14.75591877911153
CUTE-1
1 27844U 03031E   19333.50662852  .00000041  00000-0  38308-4 0  9996
2 27844  98.6840 339.2719 0008819 278.0440  81.9737 14.22208105851573
CUBESAT XI 4
1 27848U 03031J   19332.77147181 +.00000031 +00000-0 +33905-4 0  9998
2 27848 098.6913 339.0796 0008752 293.6935 066.3323 14.21799175851286
MOZHAYETS 4
1 27939U 03042A   19333.42638396  .00000040  00000-0  15846-4 0  9991
2 27939  98.0634 106.2855 0011708 268.9229  91.0642 14.66820587864540
CUBESAT XI 5
1 28895U 05043F   19333.37074972  .00000138  00000-0  35435-4 0  9998
2 28895  97.9822 110.7296 0016622 190.8391 169.2456 14.63715646751420
CUTE-1.7+APD II
1 32785U 08021C   19332.85387734  .00000203  00000-0  27510-4 0  9993
2 32785  97.5584 324.9515 0014593  82.7379 277.5497 14.88381088627951
DELFI C3
1 32789U 08021G   19332.68267629 +.00001489 +00000-0 +10261-3 0  9999
2 32789 097.4454 017.2845 0010654 289.1757 070.8318 15.07287038631419
SEEDS
1 32791U 08021J   19332.99916030  .00000325  00000-0  38211-4 0  9997
2 32791  97.5323 331.1954 0014637  57.5999 302.6634 14.90920752628441
YUBELEINY
1 32953U 08025A   19333.42925202  .00000021  00000-0  75656-4 0  9998
2 32953  82.5068  42.9320 0020220 131.5054 228.7762 12.43092458522650
PRISM (HITOMI)
1 33493U 09002B   19333.18610286  .00000106  00000-0  14793-4 0  9999
2 33493  98.1279 260.3728 0015490   6.1656 353.9753 14.96820694589603
KKS-1 (KISEKI)
1 33499U 09002H   19332.90806696 +.00000087 +00000-0 +20802-4 0  9992
2 33499 098.3352 176.7285 0010122 051.8622 308.3496 14.75483458582867
SWISSCUBE
1 35932U 09051B   19332.91341550 +.00000135 +00000-0 +41428-4 0  9995
2 35932 098.5996 143.8235 0008099 032.3281 327.8410 14.56334375540499
BEESAT
1 35933U 09051C   19332.90672349 +.00000099 +00000-0 +33349-4 0  9990
2 35933 098.6009 145.6387 0006532 046.2968 313.8769 14.56417197540564
ITUPSAT 1
1 35935U 09051E   19333.12758072  .00000093  00000-0  32498-4 0  9993
2 35935  98.6117 146.0906 0008797  41.6104 318.5760 14.55570739540412
XIWANG-1 (HOPE-1)
1 36122U 09072B   19332.76562171 -.00000028  00000-0  36427-4 0  9992
2 36122 100.0805 327.5227 0007289 333.1109  26.9626 13.16352448478337
TISAT 1
1 36799U 10035E   19332.87727768 +.00000319 +00000-0 +38221-4 0  9996
2 36799 098.1741 130.6679 0011006 270.7861 089.2095 14.91214013508885
JUGNU
1 37839U 11058B   19332.63553816 +.00000317 +00000-0 +27402-4 0  9990
2 37839 019.9619 066.6515 0018930 323.9815 174.6065 14.12665691420217
SRMSAT
1 37841U 11058D   19332.84994333 +.00000297 +00000-0 +18024-4 0  9996
2 37841 019.9707 125.5038 0011786 188.8646 319.7886 14.10644351419663
M-CUBED/EXP-1 PRIME
1 37855U 11061F   19333.47898967  .00001743  00000-0  94079-4 0  9992
2 37855 101.7241 313.2330 0172383 311.2214  47.4247 15.05837160441428
HORYU 2
1 38340U 12025D   19333.11626422  .00000168  00000-0  32536-4 0  9999
2 38340  98.3102  16.4492 0010681 328.6742  31.3829 14.75780718405268
STRAND 1
1 39090U 13009E   19333.14442690  .00000041  00000-0  29506-4 0  9994
2 39090  98.4705 176.2405 0009479 156.9300 203.2312 14.35107337353833
SOMP
1 39134U 13015E   19332.89003713 +.00000917 +00000-0 +50487-4 0  9994
2 39134 064.8624 211.5719 0037844 276.9558 082.7266 15.20537142365023
BEESAT 3
1 39135U 13015F   19332.90726387 +.00000869 +00000-0 +52007-4 0  9992
2 39135 064.8667 232.1343 0041260 280.5320 079.1159 15.17762976364625
BEESAT 2
1 39136U 13015G   19332.87484525 +.00000977 +00000-0 +58478-4 0  9992
2 39136 064.8693 236.5431 0030479 285.8752 073.9015 15.17179276364536
CUBEBUG 1
1 39153U 13018D   19333.51328823  .00000205  00000-0  33584-4 0  9999
2 39153  97.9821  70.7530 0017510  31.9076 328.3193 14.80631564356057
ZACUBE
1 39417U 13066B   19332.78709910  .00000183  00000-0  29339-4 0  9991
2 39417  97.5614 337.1165 0057979 218.1048 141.6059 14.81184656325184
TRITON 1
1 39427U 13066M   19333.19257760  .00000198  00000-0  39568-4 0  9990
2 39427  97.6982 300.6550 0113903   2.7749 357.4064 14.67912729322322
GOMX 1
1 39430U 13066Q   19333.43212255  .00000228  00000-0  49818-4 0  9994
2 39430  97.7669 279.3690 0152291  97.8794 263.9729 14.59315333320487
HUMSAT D
1 39433U 13066T   19333.09342062  .00000252  00000-0  29746-4 0  9994
2 39433  97.5340  13.7534 0032172 114.4967 245.9613 14.92313468327443
CUBEBUG 2
1 39440U 13066AA  19332.93934444 +.00000189 +00000-0 +33396-4 0  9990
2 39440 097.6131 321.8304 0078747 274.8106 084.4116 14.75923530322854
FUNCUBE 1
1 39444U 13066AE  19333.10207018  .00000218  00000-0  33072-4 0  9998
2 39444  97.5578 339.5080 0057291 210.0791 149.7129 14.82018118324139
UWE-3
1 39446U 13066AG  19332.93464517 +.00000188 +00000-0 +31738-4 0  9992
2 39446 097.5865 328.9910 0068613 246.9112 112.4857 14.78457473322790
SPROUT
1 39770U 14029E   19333.37116518  .00000635  00000-0  76124-4 0  9991
2 39770  97.8914  75.6788 0007889 269.9029  90.1275 14.87520883299163
UNISAT 6
1 40012U 14033C   19332.93579311 +.00000174 +00000-0 +33337-4 0  9999
2 40012 097.7329 192.3116 0057055 291.7004 067.8136 14.74038298292734
DUCHIFAT 1
1 40021U 14033M   19333.05993607  .00000369  00000-0  43405-4 0  9994
2 40021  97.9305 258.2265 0011685 228.0367 131.9856 14.90748877295881
QB50P1
1 40025U 14033R   19333.46981516  .00000287  00000-0  36439-4 0  9997
2 40025  97.9083 252.8851 0011161 237.8973 122.1161 14.89028887295699
CHUBUSAT 1
1 40300U 14070C   19333.46526128  .00000662  00000-0  31625-4 0  9997
2 40300  97.3146  43.3853 0019452 196.0061 174.5686 15.22268876280935
NUDT-PHONESAT
1 40900U 15049B   19333.57213109  .00002281  00000-0  98908-4 0  9990
2 40900  97.4352 341.3388 0012007 336.7805 140.7725 15.23337354232602
ZDPS 2A
1 40901U 15049C   19333.56822829  .00000817  00000-0  43487-4 0  9990
2 40901  97.4611 337.0582 0013460 359.8886  90.7147 15.17954071232097
ZDPS 2B
1 40902U 15049D   19333.54931829  .00001387  00000-0  71748-4 0  9994
2 40902  97.4569 334.4065 0013323 357.5424 122.8540 15.17852151232065
XW-2A
1 40903U 15049E   19333.57310938  .00001869  00000-0  45248-4 0  9991
2 40903  97.3176  17.1200 0011659 272.7404 245.7977 15.42372037235500
KAITUO 1A
1 40904U 15049F   19333.56461024  .00000501  00000-0  29875-4 0  9994
2 40904  97.4714 332.8240 0014843   6.4845 146.1073 15.15519558231812
OBJECT G
1 40905U 15049G   19333.55722059  .00000261  00000-0  17755-4 0  9999
2 40905  97.4767 330.2008 0015812   1.6698 111.8939 15.14401473231674
XW-2C
1 40906U 15049H   19333.39101872  .00000863  00000-0  48511-4 0  9998
2 40906  97.4714 332.8149 0014648 358.1244 109.5130 15.15843490231794
XW-2D
1 40907U 15049J   19333.54707404  .00000889  00000-0  49635-4 0  9995
2 40907  97.4699 332.6533 0013993 355.2097 119.7850 15.16046820231838
LILACSAT 2
1 40908U 15049K   19333.52353112  .00000522  00000-0  32390-4 0  9991
2 40908  97.4838 331.2599 0015851   2.5220 112.7474 15.13904193231597
XW-2F
1 40910U 15049M   19333.54870404  .00001229  00000-0  64431-4 0  9990
2 40910  97.4651 334.9107 0014293 346.6825 129.8819 15.17565973231865
XW-2B
1 40911U 15049N   19333.58789231  .00000828  00000-0  46545-4 0  9992
2 40911  97.4717 333.3702 0013785 355.9741 121.8322 15.15975615231731
KAITUO 1B
1 40912U 15049P   19333.52858547  .00001284  00000-0  62896-4 0  9998
2 40912  97.4499 338.7893 0013920 326.0237 160.6960 15.19911694232190
TIANWANG 1C (TW-1C)
1 40926U 15051B   19333.38807347  .00012821  00000-0  16407-3 0  9997
2 40926  97.1146  19.5102 0008720 117.2067   8.8030 15.59292305235639
